Wetterdaten: aktuell Freitag, 19.01.2018 15:50
Datum Zeit Temp. A. Temp. A. min Feuchte A. Luftdruck Regen Wind Richtung Richtung Sonnenschein Solar Taupunkt Windchill Windben
19.01.2018 15:50 5,6 C 5,6 C 77 % 1011,3 hPa 0,0 l/m 5,3 km/h (1 Bft) SW 221 0 min 0 W/m 1,9 C 4,7 C 9,7 km/h (2 Bft)
19.01.2018 15:45 5,6 C 5,6 C 76 % 1011,3 hPa 0,0 l/m 6,5 km/h (2 Bft) S-SW 207 0 min 0 W/m 1,7 C 4,3 C 12,9 km/h (3 Bft)
19.01.2018 15:40 5,6 C 5,5 C 77 % 1011,3 hPa 0,0 l/m 8,1 km/h (2 Bft) S-SW 211 0 min 0 W/m 1,9 C 3,8 C 16,1 km/h (3 Bft)
19.01.2018 15:35 5,5 C 5,4 C 77 % 1011,3 hPa 0,0 l/m 4,7 km/h (1 Bft) W-SW 243 0 min 0 W/m 1,8 C 4,8 C 11,3 km/h (2 Bft)
19.01.2018 15:30 5,4 C 5,3 C 78 % 1011,4 hPa 0,0 l/m 3,6 km/h (1 Bft) SW 223 0 min 0 W/m 1,9 C 5,4 C 8,0 km/h (2 Bft)
19.01.2018 15:25 5,3 C 5,3 C 77 % 1011,5 hPa 0,0 l/m 2,8 km/h (1 Bft) SW 214 0 min 0 W/m 1,6 C 5,3 C 4,8 km/h (1 Bft)
19.01.2018 15:20 5,3 C 5,3 C 77 % 1011,5 hPa 0,0 l/m 1,7 km/h (1 Bft) W-NW 288 0 min 0 W/m 1,6 C 5,3 C 9,7 km/h (2 Bft)
19.01.2018 15:15 5,3 C 5,3 C 77 % 1011,4 hPa 0,0 l/m 2,9 km/h (1 Bft) W-SW 252 0 min 0 W/m 1,6 C 5,3 C 8,0 km/h (2 Bft)
19.01.2018 15:10 5,3 C 5,3 C 77 % 1011,5 hPa 0,0 l/m 4,4 km/h (1 Bft) SW 215 0 min 0 W/m 1,6 C 5,3 C 8,0 km/h (2 Bft)
19.01.2018 15:05 5,3 C 5,3 C 76 % 1011,5 hPa 0,0 l/m 4,4 km/h (1 Bft) SW 216 0 min 0 W/m 1,4 C 5,3 C 9,7 km/h (2 Bft)
19.01.2018 15:00 5,4 C 5,4 C 77 % 1011,4 hPa 0,0 l/m 7,5 km/h (2 Bft) S-SW 206 0 min 0 W/m 1,7 C 3,7 C 14,5 km/h (3 Bft)
19.01.2018 14:55 5,4 C 5,4 C 77 % 1011,4 hPa 0,0 l/m 6,2 km/h (2 Bft) S-SW 200 0 min 0 W/m 1,7 C 4,1 C 12,9 km/h (3 Bft)
19.01.2018 14:50 5,4 C 5,4 C 77 % 1011,4 hPa 0,0 l/m 9,1 km/h (2 Bft) SW 215 0 min 0 W/m 1,7 C 3,3 C 16,1 km/h (3 Bft)
19.01.2018 14:45 5,4 C 5,3 C 77 % 1011,5 hPa 0,0 l/m 9,2 km/h (2 Bft) S-SW 196 0 min 0 W/m 1,7 C 3,3 C 19,3 km/h (3 Bft)
19.01.2018 14:40 5,3 C 5,3 C 76 % 1011,5 hPa 0,0 l/m 10,1 km/h (2 Bft) SW 215 0 min 0 W/m 1,4 C 3,0 C 17,7 km/h (3 Bft)
19.01.2018 14:35 5,3 C 5,3 C 77 % 1011,4 hPa 0,0 l/m 7,6 km/h (2 Bft) SW 224 0 min 0 W/m 1,6 C 3,6 C 19,3 km/h (3 Bft)
19.01.2018 14:30 5,4 C 5,3 C 77 % 1011,5 hPa 0,0 l/m 7,1 km/h (2 Bft) S-SW 200 0 min 0 W/m 1,7 C 3,8 C 14,5 km/h (3 Bft)
19.01.2018 14:25 5,4 C 5,4 C 77 % 1011,5 hPa 0,0 l/m 9,4 km/h (2 Bft) SW 219 0 min 0 W/m 1,7 C 3,3 C 20,9 km/h (4 Bft)
19.01.2018 14:20 5,4 C 5,4 C 76 % 1011,5 hPa 0,0 l/m 8,6 km/h (2 Bft) S-SW 209 0 min 0 W/m 1,5 C 3,5 C 16,1 km/h (3 Bft)
19.01.2018 14:15 5,4 C 5,4 C 75 % 1011,5 hPa 0,0 l/m 9,0 km/h (2 Bft) S-SW 202 0 min 0 W/m 1,3 C 3,4 C 19,3 km/h (3 Bft)
19.01.2018 14:10 5,5 C 5,5 C 74 % 1011,6 hPa 0,0 l/m 9,8 km/h (2 Bft) S-SO 159 0 min 0 W/m 1,2 C 3,3 C 20,9 km/h (4 Bft)
19.01.2018 14:05 5,6 C 5,6 C 73 % 1011,8 hPa 0,0 l/m 7,3 km/h (2 Bft) S-SW 205 0 min 0 W/m 1,2 C 4,0 C 16,1 km/h (3 Bft)
19.01.2018 14:00 5,7 C 5,7 C 73 % 1012,0 hPa 0,0 l/m 12,4 km/h (3 Bft) S-SW 200 0 min 0 W/m 1,2 C 3,0 C 22,5 km/h (4 Bft)
19.01.2018 13:55 5,8 C 5,8 C 73 % 1011,9 hPa 0,0 l/m 5,8 km/h (2 Bft) S-SW 211 0 min 0 W/m 1,3 C 4,7 C 16,1 km/h (3 Bft)
19.01.2018 13:50 5,8 C 5,8 C 70 % 1011,9 hPa 0,0 l/m 5,1 km/h (1 Bft) S-SW 208 0 min 0 W/m 0,8 C 5,0 C 11,3 km/h (2 Bft)
19.01.2018 13:45 5,9 C 5,9 C 70 % 1011,9 hPa 0,0 l/m 6,5 km/h (2 Bft) W-SW 242 0 min 0 W/m 0,9 C 4,6 C 17,7 km/h (3 Bft)
19.01.2018 13:40 6,1 C 6,1 C 71 % 1011,9 hPa 0,0 l/m 6,9 km/h (2 Bft) S-SW 205 0 min 0 W/m 1,2 C 4,7 C 16,1 km/h (3 Bft)
19.01.2018 13:35 6,2 C 6,2 C 73 % 1012,0 hPa 0,0 l/m 4,6 km/h (1 Bft) S-SW 200 0 min 0 W/m 1,7 C 5,6 C 11,3 km/h (2 Bft)
19.01.2018 13:30 6,2 C 6,2 C 73 % 1012,1 hPa 0,0 l/m 8,2 km/h (2 Bft) S-SW 207 0 min 0 W/m 1,7 C 4,5 C 17,7 km/h (3 Bft)
19.01.2018 13:25 6,2 C 6,1 C 74 % 1012,1 hPa 0,0 l/m 9,2 km/h (2 Bft) S 186 0 min 0 W/m 1,9 C 4,3 C 20,9 km/h (4 Bft)
19.01.2018 13:20 6,1 C 6,1 C 73 % 1012,0 hPa 0,0 l/m 9,5 km/h (2 Bft) S-SW 196 0 min 0 W/m 1,6 C 4,1 C 20,9 km/h (4 Bft)
19.01.2018 13:15 6,1 C 5,8 C 74 % 1012,0 hPa 0,0 l/m 12,1 km/h (2 Bft) S-SW 192 0 min 0 W/m 1,8 C 3,6 C 27,4 km/h (4 Bft)
19.01.2018 13:10 5,8 C 5,7 C 74 % 1012,2 hPa 0,0 l/m 6,8 km/h (2 Bft) SW 215 0 min 0 W/m 1,5 C 4,4 C 14,5 km/h (3 Bft)
19.01.2018 13:05 5,7 C 5,7 C 69 % 1012,1 hPa 0,0 l/m 7,6 km/h (2 Bft) S 191 0 min 0 W/m 0,5 C 4,1 C 17,7 km/h (3 Bft)
19.01.2018 13:00 5,7 C 5,7 C 70 % 1012,2 hPa 0,0 l/m 6,1 km/h (2 Bft) SW 223 0 min 0 W/m 0,7 C 4,5 C 12,9 km/h (3 Bft)
19.01.2018 12:55 5,7 C 5,6 C 71 % 1012,2 hPa 0,0 l/m 6,0 km/h (2 Bft) W-SW 253 0 min 0 W/m 0,9 C 4,5 C 12,9 km/h (3 Bft)
19.01.2018 12:50 5,6 C 5,6 C 70 % 1012,2 hPa 0,0 l/m 7,0 km/h (2 Bft) S-SW 193 0 min 0 W/m 0,6 C 4,1 C 14,5 km/h (3 Bft)
19.01.2018 12:45 5,6 C 5,6 C 71 % 1012,3 hPa 0,0 l/m 7,0 km/h (2 Bft) W-SW 246 0 min 0 W/m 0,8 C 4,1 C 20,9 km/h (4 Bft)
19.01.2018 12:40 5,7 C 5,7 C 70 % 1012,3 hPa 0,0 l/m 6,3 km/h (2 Bft) S-SW 202 0 min 0 W/m 0,7 C 4,4 C 14,5 km/h (3 Bft)
19.01.2018 12:35 5,8 C 5,8 C 70 % 1012,3 hPa 0,0 l/m 6,6 km/h (2 Bft) S-SW 199 0 min 0 W/m 0,8 C 4,5 C 16,1 km/h (3 Bft)
19.01.2018 12:30 5,9 C 5,8 C 71 % 1012,4 hPa 0,0 l/m 6,3 km/h (2 Bft) S-SW 213 0 min 0 W/m 1,1 C 4,7 C 14,5 km/h (3 Bft)
19.01.2018 12:25 5,9 C 5,8 C 72 % 1012,3 hPa 0,0 l/m 6,1 km/h (2 Bft) SW 227 0 min 0 W/m 1,2 C 4,7 C 12,9 km/h (3 Bft)
19.01.2018 12:20 5,8 C 5,8 C 72 % 1012,2 hPa 0,0 l/m 6,3 km/h (2 Bft) SW 222 0 min 0 W/m 1,2 C 4,5 C 17,7 km/h (3 Bft)
19.01.2018 12:15 5,8 C 5,8 C 72 % 1012,2 hPa 0,0 l/m 5,8 km/h (2 Bft) W-SW 244 0 min 0 W/m 1,2 C 4,7 C 14,5 km/h (3 Bft)
19.01.2018 12:10 5,9 C 5,8 C 75 % 1012,3 hPa 0,0 l/m 4,1 km/h (1 Bft) W-SW 250 0 min 0 W/m 1,8 C 5,9 C 8,0 km/h (2 Bft)
19.01.2018 12:05 5,8 C 5,8 C 75 % 1012,3 hPa 0,0 l/m 7,1 km/h (2 Bft) NW 306 0 min 0 W/m 1,7 C 4,3 C 14,5 km/h (3 Bft)
19.01.2018 12:00 5,8 C 5,8 C 74 % 1012,3 hPa 0,0 l/m 6,2 km/h (2 Bft) S-SO 163 0 min 0 W/m 1,5 C 4,6 C 19,3 km/h (3 Bft)
19.01.2018 11:55 5,8 C 5,8 C 75 % 1012,3 hPa 0,0 l/m 6,5 km/h (2 Bft) S 180 0 min 0 W/m 1,7 C 4,5 C 20,9 km/h (4 Bft)
19.01.2018 11:50 5,8 C 5,7 C 75 % 1012,2 hPa 0,0 l/m 10,5 km/h (2 Bft) S-SW 205 0 min 0 W/m 1,7 C 3,5 C 20,9 km/h (4 Bft)
19.01.2018 11:45 5,8 C 5,7 C 75 % 1012,2 hPa 0,0 l/m 10,8 km/h (2 Bft) S 188 0 min 0 W/m 1,7 C 3,5 C 24,1 km/h (4 Bft)
19.01.2018 11:40 5,7 C 5,7 C 76 % 1012,2 hPa 0,0 l/m 11,7 km/h (2 Bft) S-SW 196 0 min 0 W/m 1,8 C 3,2 C 24,1 km/h (4 Bft)
19.01.2018 11:35 5,7 C 5,7 C 76 % 1012,1 hPa 0,0 l/m 14,2 km/h (3 Bft) W 274 0 min 0 W/m 1,8 C 2,7 C 35,4 km/h (5 Bft)
19.01.2018 11:30 5,7 C 5,6 C 76 % 1012,1 hPa 0,0 l/m 10,9 km/h (2 Bft) S-SW 192 0 min 0 W/m 1,8 C 3,3 C 25,7 km/h (4 Bft)
19.01.2018 11:25 5,7 C 5,6 C 77 % 1012,1 hPa 0,0 l/m 11,2 km/h (2 Bft) W 260 0 min 0 W/m 2,0 C 3,3 C 29,0 km/h (5 Bft)
19.01.2018 11:20 5,6 C 5,4 C 78 % 1012,1 hPa 0,0 l/m 14,8 km/h (3 Bft) S-SO 153 0 min 0 W/m 2,1 C 2,5 C 30,6 km/h (5 Bft)
19.01.2018 11:15 5,4 C 5,3 C 80 % 1012,1 hPa 0,0 l/m 11,3 km/h (2 Bft) S-SW 213 0 min 0 W/m 2,2 C 2,9 C 25,7 km/h (4 Bft)
19.01.2018 11:10 5,3 C 5,2 C 81 % 1012,0 hPa 0,0 l/m 9,8 km/h (2 Bft) SW 223 0 min 0 W/m 2,3 C 3,1 C 22,5 km/h (4 Bft)
19.01.2018 11:05 5,2 C 5,1 C 81 % 1012,0 hPa 0,0 l/m 10,0 km/h (2 Bft) SW 226 0 min 0 W/m 2,2 C 2,9 C 24,1 km/h (4 Bft)
19.01.2018 11:00 5,1 C 5,0 C 81 % 1012,1 hPa 0,0 l/m 12,0 km/h (2 Bft) S-SO 159 0 min 0 W/m 2,1 C 2,4 C 24,1 km/h (4 Bft)
19.01.2018 10:55 5,0 C 4,9 C 82 % 1012,0 hPa 0,0 l/m 9,8 km/h (2 Bft) S 189 0 min 0 W/m 2,2 C 2,7 C 24,1 km/h (4 Bft)
19.01.2018 10:50 4,9 C 4,9 C 83 % 1012,0 hPa 0,0 l/m 6,3 km/h (2 Bft) S-SW 201 0 min 0 W/m 2,3 C 3,5 C 16,1 km/h (3 Bft)
19.01.2018 10:45 4,9 C 4,8 C 82 % 1011,9 hPa 0,0 l/m 9,9 km/h (2 Bft) SW 214 0 min 0 W/m 2,1 C 2,6 C 19,3 km/h (3 Bft)
19.01.2018 10:40 4,8 C 4,7 C 82 % 1011,9 hPa 0,0 l/m 6,4 km/h (2 Bft) SW 218 0 min 0 W/m 2,0 C 3,4 C 14,5 km/h (3 Bft)
19.01.2018 10:35 4,7 C 4,7 C 83 % 1011,9 hPa 0,0 l/m 9,1 km/h (2 Bft) W-SW 238 0 min 0 W/m 2,1 C 2,5 C 19,3 km/h (3 Bft)
19.01.2018 10:30 4,7 C 4,6 C 83 % 1011,9 hPa 0,0 l/m 5,8 km/h (2 Bft) S-SW 212 0 min 0 W/m 2,1 C 3,4 C 11,3 km/h (2 Bft)
19.01.2018 10:25 4,6 C 4,6 C 83 % 1011,9 hPa 0,0 l/m 7,1 km/h (2 Bft) SW 223 0 min 0 W/m 2,0 C 2,9 C 14,5 km/h (3 Bft)
19.01.2018 10:20 4,6 C 4,6 C 82 % 1011,8 hPa 0,0 l/m 7,5 km/h (2 Bft) SW 218 0 min 0 W/m 1,8 C 2,8 C 16,1 km/h (3 Bft)
19.01.2018 10:15 4,6 C 4,5 C 82 % 1011,6 hPa 0,0 l/m 9,2 km/h (2 Bft) S 178 0 min 0 W/m 1,8 C 2,4 C 24,1 km/h (4 Bft)
19.01.2018 10:10 4,5 C 4,4 C 82 % 1011,6 hPa 0,0 l/m 8,2 km/h (2 Bft) S-SW 212 0 min 0 W/m 1,7 C 2,5 C 17,7 km/h (3 Bft)
19.01.2018 10:05 4,4 C 4,3 C 84 % 1011,5 hPa 0,0 l/m 10,0 km/h (2 Bft) W 281 0 min 0 W/m 1,9 C 1,9 C 27,4 km/h (4 Bft)
19.01.2018 10:00 4,3 C 4,2 C 84 % 1011,5 hPa 0,0 l/m 7,4 km/h (2 Bft) S-SW 207 0 min 0 W/m 1,8 C 2,5 C 12,9 km/h (3 Bft)
19.01.2018 09:55 4,2 C 4,1 C 85 % 1011,4 hPa 0,0 l/m 8,2 km/h (2 Bft) SW 216 0 min 0 W/m 1,9 C 2,1 C 17,7 km/h (3 Bft)
19.01.2018 09:50 4,1 C 4,1 C 85 % 1011,4 hPa 0,0 l/m 7,1 km/h (2 Bft) SW 215 0 min 0 W/m 1,8 C 2,3 C 16,1 km/h (3 Bft)
19.01.2018 09:45 4,1 C 3,9 C 86 % 1011,2 hPa 0,0 l/m 8,7 km/h (2 Bft) S 174 0 min 0 W/m 2,0 C 1,9 C 17,7 km/h (3 Bft)
19.01.2018 09:40 3,9 C 3,8 C 87 % 1011,2 hPa 0,0 l/m 5,3 km/h (1 Bft) S 185 0 min 0 W/m 1,9 C 2,7 C 20,9 km/h (4 Bft)
19.01.2018 09:35 3,8 C 3,7 C 87 % 1011,1 hPa 0,0 l/m 8,1 km/h (2 Bft) SW 219 0 min 0 W/m 1,8 C 1,7 C 19,3 km/h (3 Bft)
19.01.2018 09:30 3,7 C 3,6 C 88 % 1011,1 hPa 0,0 l/m 6,6 km/h (2 Bft) S-SW 209 0 min 0 W/m 1,9 C 2,0 C 14,5 km/h (3 Bft)
19.01.2018 09:25 3,6 C 3,6 C 88 % 1010,9 hPa 0,0 l/m 6,2 km/h (2 Bft) S-SW 203 0 min 0 W/m 1,8 C 2,0 C 12,9 km/h (3 Bft)
19.01.2018 09:20 3,6 C 3,5 C 88 % 1010,9 hPa 0,0 l/m 7,9 km/h (2 Bft) SW 218 0 min 0 W/m 1,8 C 1,5 C 16,1 km/h (3 Bft)
19.01.2018 09:15 3,5 C 3,4 C 88 % 1010,8 hPa 0,0 l/m 9,3 km/h (2 Bft) S-SW 193 0 min 0 W/m 1,7 C 1,0 C 19,3 km/h (3 Bft)
19.01.2018 09:10 3,4 C 3,4 C 89 % 1010,7 hPa 0,0 l/m 7,3 km/h (2 Bft) SW 225 0 min 0 W/m 1,8 C 1,5 C 17,7 km/h (3 Bft)
19.01.2018 09:05 3,4 C 3,4 C 89 % 1010,6 hPa 0,0 l/m 6,8 km/h (2 Bft) S 184 0 min 0 W/m 1,8 C 1,6 C 12,9 km/h (3 Bft)
19.01.2018 09:00 3,4 C 3,4 C 88 % 1010,4 hPa 0,0 l/m 5,3 km/h (1 Bft) S-SW 209 0 min 0 W/m 1,6 C 2,1 C 14,5 km/h (3 Bft)
19.01.2018 08:55 3,5 C 3,5 C 88 % 1010,3 hPa 0,0 l/m 4,9 km/h (1 Bft) S 188 0 min 0 W/m 1,7 C 2,4 C 11,3 km/h (2 Bft)
19.01.2018 08:50 3,6 C 3,6 C 88 % 1010,3 hPa 0,0 l/m 6,6 km/h (2 Bft) S-SW 205 0 min 0 W/m 1,8 C 1,9 C 12,9 km/h (3 Bft)
19.01.2018 08:45 3,6 C 3,6 C 88 % 1010,1 hPa 0,0 l/m 7,2 km/h (2 Bft) S-SO 165 0 min 0 W/m 1,8 C 1,7 C 16,1 km/h (3 Bft)
19.01.2018 08:40 3,6 C 3,5 C 88 % 1010,0 hPa 0,0 l/m 8,0 km/h (2 Bft) S-SW 198 0 min 0 W/m 1,8 C 1,5 C 17,7 km/h (3 Bft)
19.01.2018 08:35 3,5 C 3,4 C 89 % 1010,0 hPa 0,0 l/m 9,0 km/h (2 Bft) S-SW 192 0 min 0 W/m 1,9 C 1,1 C 30,6 km/h (5 Bft)
19.01.2018 08:30 3,4 C 3,4 C 88 % 1010,0 hPa 0,0 l/m 7,0 km/h (2 Bft) W-SW 245 0 min 0 W/m 1,6 C 1,6 C 16,1 km/h (3 Bft)
19.01.2018 08:25 3,4 C 3,4 C 89 % 1009,9 hPa 0,0 l/m 7,9 km/h (2 Bft) S-SW 211 0 min 0 W/m 1,8 C 1,3 C 20,9 km/h (4 Bft)
19.01.2018 08:20 3,5 C 3,4 C 89 % 1009,9 hPa 0,0 l/m 10,2 km/h (2 Bft) S-SW 199 0 min 0 W/m 1,9 C 0,8 C 22,5 km/h (4 Bft)
19.01.2018 08:15 3,5 C 3,4 C 89 % 1009,6 hPa 0,0 l/m 9,8 km/h (2 Bft) S-SW 199 0 min 0 W/m 1,9 C 0,9 C 20,9 km/h (4 Bft)
19.01.2018 08:10 3,4 C 3,4 C 90 % 1009,5 hPa 0,0 l/m 6,3 km/h (2 Bft) S-SW 200 0 min 0 W/m 1,9 C 1,8 C 14,5 km/h (3 Bft)
19.01.2018 08:05 3,5 C 3,5 C 90 % 1009,4 hPa 0,0 l/m 6,2 km/h (2 Bft) S-SW 200 0 min 0 W/m 2,0 C 1,9 C 14,5 km/h (3 Bft)
19.01.2018 08:00 3,6 C 3,6 C 91 % 1009,3 hPa 0,0 l/m 8,2 km/h (2 Bft) SW 228 0 min 0 W/m 2,3 C 1,4 C 17,7 km/h (3 Bft)
19.01.2018 07:55 3,7 C 3,7 C 91 % 1009,1 hPa 0,0 l/m 9,7 km/h (2 Bft) S-SW 200 0 min 0 W/m 2,4 C 1,2 C 32,2 km/h (5 Bft)
19.01.2018 07:50 3,7 C 3,6 C 91 % 1009,1 hPa 0,0 l/m 10,6 km/h (2 Bft) SW 223 0 min 0 W/m 2,4 C 1,0 C 19,3 km/h (3 Bft)
19.01.2018 07:45 3,6 C 3,6 C 92 % 1009,1 hPa 0,0 l/m 6,4 km/h (2 Bft) SW 215 0 min 0 W/m 2,4 C 2,0 C 6,4 km/h (2 Bft)
19.01.2018 07:40 3,6 C 3,6 C 92 % 1009,1 hPa 0,0 l/m 6,8 km/h (2 Bft) SW 215 0 min 0 W/m 2,4 C 1,8 C 11,3 km/h (2 Bft)
19.01.2018 07:35 3,6 C 3,6 C 92 % 1009,0 hPa 0,0 l/m 8,1 km/h (2 Bft) W-SW 252 0 min 0 W/m 2,4 C 1,5 C 19,3 km/h (3 Bft)
19.01.2018 07:30 3,6 C 3,2 C 92 % 1008,9 hPa 0,0 l/m 3,7 km/h (1 Bft) S-SW 203 0 min 0 W/m 2,4 C 3,6 C 8,0 km/h (2 Bft)
19.01.2018 07:25 3,2 C 3,2 C 92 % 1008,8 hPa 0,0 l/m 3,2 km/h (1 Bft) N 0 0 min 0 W/m 2,0 C 3,2 C 3,2 km/h (1 Bft)
19.01.2018 07:20 3,2 C 3,2 C 92 % 1008,8 hPa 0,0 l/m 3,2 km/h (1 Bft) N 0 0 min 0 W/m 2,0 C 3,2 C 3,2 km/h (1 Bft)
19.01.2018 07:15 3,2 C 3,2 C 92 % 1008,8 hPa 0,0 l/m 3,2 km/h (1 Bft) N 0 0 min 0 W/m 2,0 C 3,2 C 3,2 km/h (1 Bft)
19.01.2018 07:10 3,2 C 3,2 C 92 % 1008,7 hPa 0,0 l/m 3,2 km/h (1 Bft) NW 315 0 min 0 W/m 2,0 C 3,2 C 3,2 km/h (1 Bft)
19.01.2018 07:05 3,2 C 3,2 C 92 % 1008,5 hPa 0,0 l/m 3,2 km/h (1 Bft) NW 315 0 min 0 W/m 2,0 C 3,2 C 6,4 km/h (2 Bft)
19.01.2018 07:00 3,2 C 3,2 C 92 % 1008,4 hPa 0,0 l/m 4,6 km/h (1 Bft) W 263 0 min 0 W/m 2,0 C 2,2 C 6,4 km/h (2 Bft)
19.01.2018 06:55 3,2 C 3,2 C 92 % 1008,5 hPa 0,0 l/m 5,7 km/h (1 Bft) SW 221 0 min 0 W/m 2,0 C 1,8 C 9,7 km/h (2 Bft)
19.01.2018 06:50 3,2 C 3,1 C 92 % 1008,5 hPa 0,0 l/m 6,7 km/h (2 Bft) W-NW 294 0 min 0 W/m 2,0 C 1,4 C 12,9 km/h (3 Bft)
19.01.2018 06:45 3,1 C 3,1 C 92 % 1008,4 hPa 0,0 l/m 6,7 km/h (2 Bft) SW 223 0 min 0 W/m 1,9 C 1,3 C 19,3 km/h (3 Bft)
19.01.2018 06:40 3,1 C 3,1 C 92 % 1008,4 hPa 0,0 l/m 9,1 km/h (2 Bft) S-SW 202 0 min 0 W/m 1,9 C 0,6 C 20,9 km/h (4 Bft)
19.01.2018 06:35 3,1 C 3,1 C 92 % 1008,2 hPa 0,0 l/m 10,4 km/h (2 Bft) W 274 0 min 0 W/m 1,9 C 0,3 C 22,5 km/h (4 Bft)
19.01.2018 06:30 3,1 C 3,1 C 91 % 1008,1 hPa 0,2 l/m 9,0 km/h (2 Bft) W 271 0 min 0 W/m 1,8 C 0,6 C 20,9 km/h (4 Bft)
19.01.2018 06:25 3,2 C 3,2 C 91 % 1008,0 hPa 0,0 l/m 4,7 km/h (1 Bft) W-SW 255 0 min 0 W/m 1,9 C 2,2 C 12,9 km/h (3 Bft)
19.01.2018 06:20 3,3 C 3,3 C 90 % 1008,0 hPa 0,2 l/m 6,7 km/h (2 Bft) S-SW 211 0 min 0 W/m 1,8 C 1,5 C 16,1 km/h (3 Bft)
19.01.2018 06:15 3,5 C 3,5 C 90 % 1008,0 hPa 0,2 l/m 6,2 km/h (2 Bft) SW 219 0 min 0 W/m 2,0 C 1,9 C 14,5 km/h (3 Bft)
19.01.2018 06:10 3,9 C 3,9 C 89 % 1007,8 hPa 0,6 l/m 7,4 km/h (2 Bft) S-SW 207 0 min 0 W/m 2,3 C 2,0 C 12,9 km/h (3 Bft)
19.01.2018 06:05 4,2 C 4,2 C 87 % 1007,7 hPa 0,2 l/m 12,9 km/h (3 Bft) S-SW 205 0 min 0 W/m 2,2 C 1,1 C 22,5 km/h (4 Bft)
19.01.2018 06:00 4,9 C 4,9 C 87 % 1007,2 hPa 0,0 l/m 12,8 km/h (3 Bft) NW 304 0 min 0 W/m 2,9 C 2,0 C 43,5 km/h (6 Bft)
19.01.2018 05:55 5,1 C 5,1 C 89 % 1007,1 hPa 0,0 l/m 13,0 km/h (3 Bft) W-NW 294 0 min 0 W/m 3,4 C 2,2 C 30,6 km/h (5 Bft)
19.01.2018 05:50 5,1 C 5,1 C 89 % 1006,8 hPa 0,0 l/m 12,7 km/h (3 Bft) SW 221 0 min 0 W/m 3,4 C 2,3 C 22,5 km/h (4 Bft)
19.01.2018 05:45 5,2 C 5,2 C 89 % 1006,7 hPa 0,0 l/m 11,5 km/h (2 Bft) S-SW 212 0 min 0 W/m 3,5 C 2,6 C 22,5 km/h (4 Bft)
19.01.2018 05:40 5,2 C 5,2 C 89 % 1006,6 hPa 0,0 l/m 9,0 km/h (2 Bft) W-SW 237 0 min 0 W/m 3,5 C 3,1 C 17,7 km/h (3 Bft)
19.01.2018 05:35 5,3 C 5,3 C 88 % 1006,6 hPa 0,0 l/m 7,9 km/h (2 Bft) S-SW 203 0 min 0 W/m 3,5 C 3,5 C 16,1 km/h (3 Bft)
19.01.2018 05:30 5,3 C 5,3 C 88 % 1006,6 hPa 0,0 l/m 8,2 km/h (2 Bft) S-SW 208 0 min 0 W/m 3,5 C 3,4 C 14,5 km/h (3 Bft)
19.01.2018 05:25 5,3 C 5,3 C 88 % 1006,6 hPa 0,0 l/m 8,7 km/h (2 Bft) S-SW 202 0 min 0 W/m 3,5 C 3,3 C 16,1 km/h (3 Bft)
19.01.2018 05:20 5,4 C 5,4 C 87 % 1006,6 hPa 0,0 l/m 6,2 km/h (2 Bft) W-SW 240 0 min 0 W/m 3,4 C 4,1 C 14,5 km/h (3 Bft)
19.01.2018 05:15 5,4 C 5,4 C 87 % 1006,5 hPa 0,0 l/m 7,4 km/h (2 Bft) S-SW 194 0 min 0 W/m 3,4 C 3,8 C 22,5 km/h (4 Bft)
19.01.2018 05:10 5,4 C 5,4 C 87 % 1006,5 hPa 0,0 l/m 6,5 km/h (2 Bft) SW 225 0 min 0 W/m 3,4 C 4,0 C 14,5 km/h (3 Bft)
19.01.2018 05:05 5,5 C 5,4 C 87 % 1006,3 hPa 0,0 l/m 7,3 km/h (2 Bft) W 259 0 min 0 W/m 3,5 C 3,9 C 16,1 km/h (3 Bft)
19.01.2018 05:00 5,5 C 5,4 C 87 % 1006,4 hPa 0,0 l/m 7,7 km/h (2 Bft) SW 226 0 min 0 W/m 3,5 C 3,8 C 19,3 km/h (3 Bft)
19.01.2018 04:55 5,4 C 5,4 C 87 % 1006,3 hPa 0,0 l/m 9,1 km/h (2 Bft) SW 215 0 min 0 W/m 3,4 C 3,3 C 24,1 km/h (4 Bft)
19.01.2018 04:50 5,4 C 5,4 C 87 % 1006,2 hPa 0,0 l/m 9,6 km/h (2 Bft) W-SW 240 0 min 0 W/m 3,4 C 3,2 C 24,1 km/h (4 Bft)
19.01.2018 04:45 5,4 C 5,4 C 88 % 1006,1 hPa 0,0 l/m 9,7 km/h (2 Bft) SW 215 0 min 0 W/m 3,6 C 3,2 C 17,7 km/h (3 Bft)
19.01.2018 04:40 5,4 C 5,4 C 89 % 1006,0 hPa 0,0 l/m 8,4 km/h (2 Bft) SW 218 0 min 0 W/m 3,7 C 3,5 C 17,7 km/h (3 Bft)
19.01.2018 04:35 5,4 C 5,4 C 89 % 1006,1 hPa 0,0 l/m 8,4 km/h (2 Bft) SW 236 0 min 0 W/m 3,7 C 3,5 C 17,7 km/h (3 Bft)
19.01.2018 04:30 5,4 C 5,4 C 89 % 1006,0 hPa 0,0 l/m 9,5 km/h (2 Bft) SW 225 0 min 0 W/m 3,7 C 3,2 C 25,7 km/h (4 Bft)
19.01.2018 04:25 5,4 C 5,3 C 90 % 1005,9 hPa 0,0 l/m 9,5 km/h (2 Bft) W 272 0 min 0 W/m 3,9 C 3,2 C 19,3 km/h (3 Bft)
19.01.2018 04:20 5,3 C 5,3 C 90 % 1005,9 hPa 0,0 l/m 8,1 km/h (2 Bft) W-SW 240 0 min 0 W/m 3,8 C 3,5 C 14,5 km/h (3 Bft)
19.01.2018 04:15 5,3 C 5,3 C 90 % 1005,7 hPa 0,0 l/m 7,9 km/h (2 Bft) S-SW 196 0 min 0 W/m 3,8 C 3,5 C 17,7 km/h (3 Bft)
19.01.2018 04:10 5,3 C 5,3 C 90 % 1005,8 hPa 0,0 l/m 7,5 km/h (2 Bft) SW 229 0 min 0 W/m 3,8 C 3,6 C 16,1 km/h (3 Bft)
19.01.2018 04:05 5,3 C 5,3 C 90 % 1005,6 hPa 0,0 l/m 6,1 km/h (2 Bft) S-SW 207 0 min 0 W/m 3,8 C 4,0 C 16,1 km/h (3 Bft)
19.01.2018 04:00 5,3 C 5,3 C 90 % 1005,5 hPa 0,0 l/m 5,0 km/h (1 Bft) S-SW 200 0 min 0 W/m 3,8 C 4,4 C 12,9 km/h (3 Bft)
19.01.2018 03:55 5,3 C 5,3 C 89 % 1005,6 hPa 0,0 l/m 5,1 km/h (1 Bft) S-SW 213 0 min 0 W/m 3,6 C 4,4 C 9,7 km/h (2 Bft)
19.01.2018 03:50 5,3 C 5,3 C 89 % 1005,5 hPa 0,0 l/m 5,5 km/h (1 Bft) W-SW 246 0 min 0 W/m 3,6 C 4,2 C 12,9 km/h (3 Bft)
19.01.2018 03:45 5,4 C 5,4 C 89 % 1005,6 hPa 0,0 l/m 7,0 km/h (2 Bft) SW 223 0 min 0 W/m 3,7 C 3,9 C 11,3 km/h (2 Bft)
19.01.2018 03:40 5,4 C 5,4 C 89 % 1005,5 hPa 0,0 l/m 7,7 km/h (2 Bft) S-SW 206 0 min 0 W/m 3,7 C 3,7 C 17,7 km/h (3 Bft)
19.01.2018 03:35 5,4 C 5,4 C 89 % 1005,6 hPa 0,0 l/m 6,1 km/h (2 Bft) S-SW 213 0 min 0 W/m 3,7 C 4,2 C 12,9 km/h (3 Bft)
19.01.2018 03:30 5,4 C 5,4 C 89 % 1005,6 hPa 0,0 l/m 9,0 km/h (2 Bft) S-SW 205 0 min 0 W/m 3,7 C 3,4 C 25,7 km/h (4 Bft)
19.01.2018 03:25 5,4 C 5,4 C 89 % 1005,5 hPa 0,2 l/m 8,0 km/h (2 Bft) S-SW 210 0 min 0 W/m 3,7 C 3,6 C 20,9 km/h (4 Bft)
19.01.2018 03:20 5,6 C 5,6 C 89 % 1005,7 hPa 0,0 l/m 6,8 km/h (2 Bft) SW 216 0 min 0 W/m 3,9 C 4,2 C 14,5 km/h (3 Bft)
19.01.2018 03:15 5,6 C 5,6 C 88 % 1005,6 hPa 0,2 l/m 6,5 km/h (2 Bft) SW 221 0 min 0 W/m 3,8 C 4,3 C 12,9 km/h (3 Bft)
19.01.2018 03:10 5,7 C 5,7 C 87 % 1005,5 hPa 0,0 l/m 6,2 km/h (2 Bft) S-SW 201 0 min 0 W/m 3,7 C 4,5 C 12,9 km/h (3 Bft)
19.01.2018 03:05 5,7 C 5,7 C 87 % 1005,3 hPa 0,0 l/m 8,6 km/h (2 Bft) S-SW 209 0 min 0 W/m 3,7 C 3,8 C 20,9 km/h (4 Bft)
19.01.2018 03:00 5,8 C 5,8 C 86 % 1005,1 hPa 0,0 l/m 10,5 km/h (2 Bft) SW 223 0 min 0 W/m 3,6 C 3,5 C 20,9 km/h (4 Bft)
19.01.2018 02:55 5,9 C 5,9 C 85 % 1005,1 hPa 0,0 l/m 9,7 km/h (2 Bft) SW 221 0 min 0 W/m 3,6 C 3,8 C 22,5 km/h (4 Bft)
19.01.2018 02:50 6,0 C 6,0 C 84 % 1004,9 hPa 0,0 l/m 7,9 km/h (2 Bft) S-SW 206 0 min 0 W/m 3,5 C 4,3 C 17,7 km/h (3 Bft)
19.01.2018 02:45 6,1 C 6,1 C 84 % 1005,0 hPa 0,0 l/m 11,4 km/h (2 Bft) S-SW 196 0 min 0 W/m 3,6 C 3,7 C 30,6 km/h (5 Bft)
19.01.2018 02:40 6,3 C 6,3 C 83 % 1004,9 hPa 0,0 l/m 10,1 km/h (2 Bft) S-SW 207 0 min 0 W/m 3,6 C 4,2 C 20,9 km/h (4 Bft)
19.01.2018 02:35 6,4 C 6,4 C 83 % 1004,7 hPa 0,0 l/m 9,9 km/h (2 Bft) SW 218 0 min 0 W/m 3,7 C 4,4 C 20,9 km/h (4 Bft)
19.01.2018 02:30 6,5 C 6,4 C 86 % 1004,7 hPa 0,0 l/m 8,6 km/h (2 Bft) W-NW 302 0 min 0 W/m 4,3 C 4,8 C 24,1 km/h (4 Bft)
19.01.2018 02:25 6,4 C 6,2 C 87 % 1004,6 hPa 0,0 l/m 7,7 km/h (2 Bft) S 173 0 min 0 W/m 4,4 C 4,9 C 16,1 km/h (3 Bft)
19.01.2018 02:20 6,2 C 6,1 C 88 % 1004,5 hPa 0,0 l/m 9,2 km/h (2 Bft) S-SW 204 0 min 0 W/m 4,4 C 4,3 C 20,9 km/h (4 Bft)
19.01.2018 02:15 6,1 C 5,9 C 89 % 1004,5 hPa 0,0 l/m 12,7 km/h (3 Bft) SW 226 0 min 0 W/m 4,4 C 3,5 C 25,7 km/h (4 Bft)
19.01.2018 02:10 5,9 C 5,8 C 90 % 1004,4 hPa 0,0 l/m 8,6 km/h (2 Bft) W-NW 300 0 min 0 W/m 4,4 C 4,0 C 20,9 km/h (4 Bft)
19.01.2018 02:05 5,8 C 5,8 C 90 % 1004,5 hPa 0,0 l/m 7,4 km/h (2 Bft) S-SW 210 0 min 0 W/m 4,3 C 4,2 C 17,7 km/h (3 Bft)
19.01.2018 02:00 5,8 C 5,7 C 90 % 1004,5 hPa 0,0 l/m 7,3 km/h (2 Bft) S 186 0 min 0 W/m 4,3 C 4,3 C 12,9 km/h (3 Bft)
19.01.2018 01:55 5,7 C 5,7 C 90 % 1004,4 hPa 0,0 l/m 7,7 km/h (2 Bft) SW 227 0 min 0 W/m 4,2 C 4,0 C 14,5 km/h (3 Bft)
19.01.2018 01:50 5,7 C 5,7 C 90 % 1004,2 hPa 0,0 l/m 8,7 km/h (2 Bft) S-SW 194 0 min 0 W/m 4,2 C 3,8 C 16,1 km/h (3 Bft)
19.01.2018 01:45 5,7 C 5,6 C 90 % 1004,2 hPa 0,0 l/m 5,8 km/h (2 Bft) S 190 0 min 0 W/m 4,2 C 4,6 C 12,9 km/h (3 Bft)
19.01.2018 01:40 5,7 C 5,7 C 90 % 1004,2 hPa 0,0 l/m 5,4 km/h (1 Bft) S-SW 198 0 min 0 W/m 4,2 C 4,7 C 9,7 km/h (2 Bft)
19.01.2018 01:35 5,7 C 5,7 C 90 % 1004,2 hPa 0,0 l/m 5,3 km/h (1 Bft) S 191 0 min 0 W/m 4,2 C 4,8 C 9,7 km/h (2 Bft)
19.01.2018 01:30 5,7 C 5,7 C 90 % 1004,2 hPa 0,0 l/m 5,3 km/h (1 Bft) S-SW 200 0 min 0 W/m 4,2 C 4,8 C 9,7 km/h (2 Bft)
19.01.2018 01:25 5,7 C 5,7 C 90 % 1004,2 hPa 0,0 l/m 5,6 km/h (1 Bft) S 191 0 min 0 W/m 4,2 C 4,7 C 11,3 km/h (2 Bft)
19.01.2018 01:20 5,8 C 5,7 C 90 % 1004,2 hPa 0,0 l/m 5,5 km/h (1 Bft) SW 223 0 min 0 W/m 4,3 C 4,8 C 8,0 km/h (2 Bft)
19.01.2018 01:15 5,8 C 5,8 C 90 % 1004,1 hPa 0,0 l/m 4,5 km/h (1 Bft) SW 226 0 min 0 W/m 4,3 C 5,8 C 9,7 km/h (2 Bft)
19.01.2018 01:10 5,8 C 5,7 C 90 % 1004,2 hPa 0,0 l/m 5,8 km/h (2 Bft) S-SW 212 0 min 0 W/m 4,3 C 4,7 C 11,3 km/h (2 Bft)
19.01.2018 01:05 5,7 C 5,7 C 90 % 1004,1 hPa 0,0 l/m 4,1 km/h (1 Bft) S-SW 211 0 min 0 W/m 4,2 C 5,7 C 8,0 km/h (2 Bft)
19.01.2018 01:00 5,7 C 5,7 C 90 % 1004,0 hPa 0,0 l/m 4,9 km/h (1 Bft) SW 217 0 min 0 W/m 4,2 C 4,9 C 9,7 km/h (2 Bft)
19.01.2018 00:55 5,7 C 5,7 C 90 % 1004,0 hPa 0,0 l/m 5,7 km/h (1 Bft) S 187 0 min 0 W/m 4,2 C 4,6 C 9,7 km/h (2 Bft)
19.01.2018 00:50 5,7 C 5,6 C 90 % 1004,2 hPa 0,0 l/m 6,2 km/h (2 Bft) S-SW 209 0 min 0 W/m 4,2 C 4,5 C 11,3 km/h (2 Bft)
19.01.2018 00:45 5,6 C 5,6 C 90 % 1004,2 hPa 0,0 l/m 7,1 km/h (2 Bft) S 180 0 min 0 W/m 4,1 C 4,1 C 11,3 km/h (2 Bft)
19.01.2018 00:40 5,6 C 5,6 C 91 % 1004,2 hPa 0,0 l/m 6,0 km/h (2 Bft) S-SW 194 0 min 0 W/m 4,2 C 4,4 C 11,3 km/h (2 Bft)
19.01.2018 00:35 5,6 C 5,6 C 91 % 1004,2 hPa 0,0 l/m 5,9 km/h (2 Bft) S-SW 205 0 min 0 W/m 4,2 C 4,4 C 9,7 km/h (2 Bft)
19.01.2018 00:30 5,6 C 5,6 C 91 % 1004,3 hPa 0,0 l/m 4,1 km/h (1 Bft) SW 233 0 min 0 W/m 4,2 C 5,6 C 9,7 km/h (2 Bft)
19.01.2018 00:25 5,6 C 5,6 C 91 % 1004,3 hPa 0,0 l/m 4,2 km/h (1 Bft) S-SW 213 0 min 0 W/m 4,2 C 5,6 C 8,0 km/h (2 Bft)
19.01.2018 00:20 5,6 C 5,5 C 91 % 1004,5 hPa 0,0 l/m 3,5 km/h (1 Bft) SW 221 0 min 0 W/m 4,2 C 5,6 C 4,8 km/h (1 Bft)
19.01.2018 00:15 5,5 C 5,4 C 91 % 1004,4 hPa 0,0 l/m 1,9 km/h (1 Bft) SW 221 0 min 0 W/m 4,2 C 5,5 C 6,4 km/h (2 Bft)
19.01.2018 00:10 5,4 C 5,4 C 91 % 1004,4 hPa 0,0 l/m 1,0 km/h (0 Bft) SW 215 0 min 0 W/m 4,1 C 5,4 C 3,2 km/h (1 Bft)
19.01.2018 00:05 5,4 C 5,4 C 91 % 1004,4 hPa 0,0 l/m 3,1 km/h (1 Bft) SW 215 0 min 0 W/m 4,1 C 5,4 C 4,8 km/h (1 Bft)
19.01.2018 00:00 5,4 C 5,3 C 91 % 1004,6 hPa 0,0 l/m 4,0 km/h (1 Bft) SW 215 0 min 0 W/m 4,1 C 5,4 C 6,4 km/h (2 Bft)
_ Min-Zeit 06:30 06:30 13:05 00:55 - 00:10 - - - - 13:05 06:35 00:10
Minimum _ 3,1 C 3,1 C 69 % 1004,0 hPa - 1,0 km/h (0 Bft) - - - - 0,5 C 0,3 C 3,2 km/h (1 Bft)
_ Max-Zeit 02:30 02:30 06:35 12:30 06:10 11:20 - - 00:00 00:00 02:15 12:10 06:00
Maximum _ 6,5 C 6,4 C 92 % 1012,4 hPa 0,6 l/m 14,8 km/h
S-SO (3 Bft)
- - 0 min 0 W/m 4,4 C 5,9 C 43,5 km/h
N-NW (6 Bft)
Durchschnitt _ 5,0 C 5,0 C 84 % 1008,7 hPa #1,8 l/m 7,4 km/h (2 Bft) S-SW - #0 min. 0 W/m 2,6 C 3,5 C 16,4 km/h (3 Bft)